sat.trackr.live / text

‹ back to catalog

STARLINK-11183 [DTC]

NORAD 60189 · 2024-124G

PAYLOAD ACTIVE UNKNOWN

§ Identity

Operator
Country
US
Launch date
2024-07-03
Launch site
AFETR
Launch vehicle
Mass (kg)
RCS (m²)

Purposes: comms

External: N2YO · Heavens-Above · Gunter

§ Orbital elements

Epoch: 2026-09-21T18:02:56.394240Z

Period
91.74 min
Inclination
53.1591°
Eccentricity
0.0001214
Mean motion
15.69704449 rev/d
Perigee alt
358.9 km
Apogee alt
360.6 km
Semi-major
6,737.9 km
B*
8.0115e-6
RAAN
275.0519°
Arg perigee
91.1212°
Mean anomaly
268.9945°
Rev number
12,732

§ Raw data

STARLINK-11183 [DTC]1 60189U 24124G   26264.75204160  .00000382  00000+0  80115-5 0  99942 60189  53.1591 275.0519 0001214  91.1212 268.9945 15.69704449127320

JSON: /api/v1/satellites/60189 · /tle

For live sub-satellite position, see the globe view (requires WebGL).

§ Visibility from observer

Set your observer location to see the next 7 days of passes ≥ 10°. The values pass through the URL so the page stays shareable.

No JS? Fill the form by hand. The geolocation button needs JavaScript.